• In Österreich
  • Länderverzeichnis
  • Für 7 Tage
  • Wassertemperatur
  • Satellitenkarten
  • Wetterkarte
  • News
  • Widgets
  • user-avatar
    Anmelden

    Stündliche Wetter Algier

    Heute, 26 September, Mittwoch

    Zeit Temperatur Niederschläge Wind Luftdruck Luftfeuchtigkeit
    00:00 +24°C° 0 mm 2 m/S 754 mmHg 79%
    01:00 +23°C° 0 mm 2 m/S 754 mmHg 81%
    02:00 +23°C° 0 mm 2 m/S 754 mmHg 82%
    03:00 +23°C° 0 mm 1 m/S 753 mmHg 84%
    04:00 +22°C° 0 mm 1 m/S 753 mmHg 85%
    05:00 +22°C° 0 mm 1 m/S 754 mmHg 86%
    06:00 +22°C° 0 mm 1 m/S 754 mmHg 86%
    07:00 +23°C° 0 mm 2 m/S 754 mmHg 78%
    08:00 +25°C° 0 mm 2 m/S 754 mmHg 69%
    09:00 +26°C° 0 mm 3 m/S 755 mmHg 61%
    10:00 +27°C° 0 mm 4 m/S 755 mmHg 56%
    11:00 +29°C° 0 mm 4 m/S 755 mmHg 51%
    12:00 +30°C° 0 mm 5 m/S 754 mmHg 46%
    13:00 +30°C° 0 mm 5 m/S 754 mmHg 46%
    14:00 +30°C° 0 mm 6 m/S 754 mmHg 46%
    15:00 +30°C° 0 mm 6 m/S 754 mmHg 46%
    16:00 +29°C° 0 mm 7 m/S 754 mmHg 52%
    17:00 +28°C° 0 mm 7 m/S 754 mmHg 59%
    18:00 +27°C° 0 mm 7 m/S 754 mmHg 65%
    19:00 +27°C° 0 mm 7 m/S 755 mmHg 69%
    20:00 +26°C° 0 mm 7 m/S 755 mmHg 73%
    21:00 +24°C° 0 mm 7 m/S 756 mmHg 76%
    22:00 +24°C° 0 mm 7 m/S 756 mmHg 78%
    23:00 +24°C° 0 mm 7 m/S 755 mmHg 79%

    Morgen, 27 September, Donnerstag

    Zeit Temperatur Niederschläge Wind Luftdruck Luftfeuchtigkeit
    00:00 +24°C° 0 mm 6 m/S 755 mmHg 80%
    01:00 +23°C° 0 mm 6 m/S 755 mmHg 81%
    02:00 +23°C° 0 mm 6 m/S 755 mmHg 82%
    03:00 +23°C° 0 mm 6 m/S 755 mmHg 83%
    04:00 +23°C° 0 mm 6 m/S 755 mmHg 84%
    05:00 +22°C° 0 mm 6 m/S 755 mmHg 84%
    06:00 +22°C° 0 mm 5 m/S 755 mmHg 85%
    07:00 +24°C° 0 mm 6 m/S 755 mmHg 77%
    08:00 +26°C° 0 mm 6 m/S 756 mmHg 69%
    09:00 +28°C° 0 mm 6 m/S 756 mmHg 61%
    10:00 +29°C° 0 mm 6 m/S 756 mmHg 56%
    11:00 +30°C° 0 mm 6 m/S 755 mmHg 52%
    12:00 +32°C° 0 mm 6 m/S 755 mmHg 48%
    13:00 +32°C° 0 mm 6 m/S 755 mmHg 48%
    14:00 +30°C° 0 mm 7 m/S 754 mmHg 48%
    15:00 +30°C° 0 mm 7 m/S 754 mmHg 48%
    16:00 +29°C° 0 mm 6 m/S 754 mmHg 52%
    17:00 +28°C° 0 mm 6 m/S 754 mmHg 56%
    18:00 +26°C° 0 mm 6 m/S 753 mmHg 60%
    19:00 +26°C° 0 mm 5 m/S 754 mmHg 62%
    20:00 +25°C° 0 mm 5 m/S 754 mmHg 65%
    21:00 +23°C° 0 mm 4 m/S 754 mmHg 67%
    22:00 +23°C° 0 mm 4 m/S 754 mmHg 68%
    23:00 +23°C° 0 mm 4 m/S 753 mmHg 70%

    übermorgen, 28 September, Freitag

    Zeit Temperatur Niederschläge Wind Luftdruck Luftfeuchtigkeit
    00:00 +22°C° 0 mm 3 m/S 753 mmHg 71%
    01:00 +22°C° 0 mm 3 m/S 753 mmHg 73%
    02:00 +22°C° 0 mm 3 m/S 752 mmHg 74%
    03:00 +22°C° 0 mm 3 m/S 752 mmHg 75%
    04:00 +21°C° 0 mm 3 m/S 752 mmHg 76%
    05:00 +21°C° 0 mm 3 m/S 752 mmHg 78%
    06:00 +21°C° 0 mm 3 m/S 752 mmHg 79%
    07:00 +24°C° 0 mm 3 m/S 752 mmHg 71%
    08:00 +25°C° 0 mm 3 m/S 752 mmHg 63%
    09:00 +27°C° 0 mm 3 m/S 752 mmHg 56%
    10:00 +28°C° 0 mm 3 m/S 752 mmHg 51%
    11:00 +29°C° 0 mm 4 m/S 751 mmHg 46%
    12:00 +30°C° 0 mm 4 m/S 751 mmHg 40%
    13:00 +30°C° 0 mm 4 m/S 751 mmHg 41%
    14:00 +30°C° 0 mm 5 m/S 750 mmHg 42%
    15:00 +30°C° 0 mm 5 m/S 750 mmHg 43%
    16:00 +28°C° 0 mm 5 m/S 750 mmHg 48%
    17:00 +27°C° 0 mm 4 m/S 750 mmHg 53%
    18:00 +26°C° 0 mm 4 m/S 749 mmHg 58%
    19:00 +25°C° 0 mm 4 m/S 750 mmHg 61%
    20:00 +24°C° 0 mm 3 m/S 750 mmHg 63%
    21:00 +24°C° 0 mm 3 m/S 750 mmHg 66%
    22:00 +22°C° 0 mm 3 m/S 750 mmHg 67%
    23:00 +22°C° 0 mm 3 m/S 750 mmHg 68%

    29 September, Samstag

    Zeit Temperatur Niederschläge Wind Luftdruck Luftfeuchtigkeit
    00:00 +23°C° 0 mm 2 m/S 750 mmHg 69%
    01:00 +23°C° 0 mm 2 m/S 749 mmHg 69%
    02:00 +21°C° 0 mm 2 m/S 749 mmHg 70%
    03:00 +21°C° 0 mm 2 m/S 749 mmHg 70%
    04:00 +21°C° 0 mm 2 m/S 749 mmHg 71%
    05:00 +21°C° 0 mm 2 m/S 749 mmHg 71%
    06:00 +21°C° 0 mm 2 m/S 749 mmHg 72%
    07:00 +24°C° 0 mm 2 m/S 749 mmHg 64%
    08:00 +25°C° 0 mm 2 m/S 749 mmHg 56%
    09:00 +27°C° 0 mm 2 m/S 750 mmHg 48%
    10:00 +28°C° 0 mm 3 m/S 749 mmHg 43%
    11:00 +30°C° 0 mm 3 m/S 749 mmHg 39%
    12:00 +32°C° 0 mm 4 m/S 749 mmHg 35%
    13:00 +30°C° 0 mm 4 m/S 749 mmHg 36%
    14:00 +30°C° 0 mm 4 m/S 748 mmHg 37%
    15:00 +30°C° 0 mm 4 m/S 748 mmHg 38%
    16:00 +29°C° 0 mm 4 m/S 748 mmHg 44%
    17:00 +27°C° 0 mm 4 m/S 749 mmHg 50%
    18:00 +26°C° 0 mm 4 m/S 749 mmHg 55%
    19:00 +25°C° 0 mm 3 m/S 749 mmHg 57%
    20:00 +25°C° 0 mm 3 m/S 749 mmHg 59%
    21:00 +24°C° 0 mm 3 m/S 750 mmHg 61%
    22:00 +24°C° 0 mm 3 m/S 750 mmHg 61%
    23:00 +24°C° 0 mm 3 m/S 749 mmHg 61%

    30 September, Sonntag

    Zeit Temperatur Niederschläge Wind Luftdruck Luftfeuchtigkeit
    00:00 +24°C° 0 mm 3 m/S 749 mmHg 61%
    01:00 +22°C° 0 mm 3 m/S 749 mmHg 60%
    02:00 +22°C° 0 mm 3 m/S 749 mmHg 60%
    03:00 +22°C° 0 mm 3 m/S 748 mmHg 59%
    04:00 +22°C° 0 mm 3 m/S 748 mmHg 59%
    05:00 +22°C° 0 mm 3 m/S 749 mmHg 58%
    06:00 +22°C° 0 mm 3 m/S 749 mmHg 57%
    07:00 +25°C° 0 mm 3 m/S 749 mmHg 50%
    08:00 +27°C° 0 mm 3 m/S 749 mmHg 43%
    09:00 +29°C° 0 mm 3 m/S 749 mmHg 36%
    10:00 +30°C° 0 mm 3 m/S 749 mmHg 33%
    11:00 +32°C° 0 mm 4 m/S 749 mmHg 30%
    12:00 +33°C° 0 mm 5 m/S 749 mmHg 28%
    13:00 +33°C° 0 mm 5 m/S 749 mmHg 28%
    14:00 +33°C° 0 mm 5 m/S 748 mmHg 28%
    15:00 +33°C° 0 mm 5 m/S 748 mmHg 28%
    16:00 +32°C° 0 mm 5 m/S 748 mmHg 33%
    17:00 +29°C° 0 mm 5 m/S 748 mmHg 38%
    18:00 +28°C° 0 mm 4 m/S 749 mmHg 43%
    19:00 +27°C° 0 mm 4 m/S 749 mmHg 45%
    20:00 +27°C° 0 mm 4 m/S 749 mmHg 47%
    21:00 +26°C° 0 mm 3 m/S 749 mmHg 49%
    22:00 +26°C° 0 mm 3 m/S 749 mmHg 48%
    23:00 +26°C° 0 mm 3 m/S 748 mmHg 47%

    1 Oktober, Montag

    Zeit Temperatur Niederschläge Wind Luftdruck Luftfeuchtigkeit
    00:00 +25°C° 0 mm 3 m/S 748 mmHg 46%
    01:00 +25°C° 0 mm 2 m/S 748 mmHg 47%
    02:00 +25°C° 0 mm 2 m/S 748 mmHg 47%
    03:00 +25°C° 0 mm 2 m/S 747 mmHg 48%
    04:00 +24°C° 0 mm 2 m/S 747 mmHg 49%
    05:00 +24°C° 0 mm 2 m/S 748 mmHg 50%
    06:00 +24°C° 0 mm 2 m/S 748 mmHg 51%
    07:00 +26°C° 0 mm 2 m/S 748 mmHg 46%
    08:00 +28°C° 0 mm 1 m/S 748 mmHg 42%
    09:00 +29°C° 0 mm 1 m/S 748 mmHg 37%
    10:00 +30°C° 0 mm 2 m/S 748 mmHg 35%
    11:00 +31°C° 0 mm 2 m/S 748 mmHg 32%
    12:00 +33°C° 0 mm 3 m/S 748 mmHg 30%
    13:00 +33°C° 0 mm 3 m/S 748 mmHg 31%
    14:00 +33°C° 0 mm 3 m/S 747 mmHg 33%
    15:00 +31°C° 0 mm 3 m/S 747 mmHg 34%
    16:00 +30°C° 0 mm 2 m/S 747 mmHg 40%
    17:00 +28°C° 0 mm 2 m/S 747 mmHg 46%
    18:00 +26°C° 0 mm 1 m/S 748 mmHg 52%
    19:00 +26°C° 0 mm 1 m/S 748 mmHg 56%
    20:00 +25°C° 0 mm 1 m/S 748 mmHg 59%
    21:00 +24°C° 0 mm 1 m/S 748 mmHg 62%
    22:00 +24°C° 0 mm 1 m/S 748 mmHg 63%
    23:00 +24°C° 0 mm 1 m/S 748 mmHg 64%
    Mehr zeigen